Regional Weather Roundup
Issued by NWS

Home | Current Version | Previous Version | Graphics & Text | Print | Product List | Glossary On
Versions: 1 2 3 4 5 6 7 8 9 10 11 12 13 14 15 16 17 18 19 20 21 22 23 24 25 26 27 28 29 30 31 32 33 34 35 36 37 38 39 40 41 42 43 44 45 46 47 48 49 50
000
ASUS43 KLOT 290303
RWRIL

ILLINOIS REGIONAL WEATHER ROUNDUP
NATIONAL WEATHER SERVICE CHICAGO/ROMEOVILLE IL
1000 PM CDT SAT MAY 28 2016

NOTE: "FAIR" INDICATES FEW OR NO CLOUDS BELOW 12,000 FEET WITH NO
SIGNIFICANT WEATHER AND/OR OBSTRUCTIONS TO VISIBILITY.

* THESE STATIONS ARE NOT UNDER NWS QUALITY CONTROL. THEY ALSO MAY NOT
  REPORT WEATHER SUCH AS PRECIPITATION OR FOG.

ILZ001-002-007-009-015-016-024-290400-
NORTHWEST ILLINOIS

CITY           SKY/WX    TMP DP  RH WIND       PRES   REMARKS
MOLINE         MOCLDY    72  60  66 SW9       29.89R
STERLING*      CLOUDY    72  66  81 SW7       29.89R
$$

ILZ003-004-008-010-011-017-018-290400-
NORTH CENTRAL ILLINOIS

CITY           SKY/WX    TMP DP  RH WIND       PRES   REMARKS
ROCKFORD       CLOUDY    69  63  81 SE7       29.92R
FREEPORT*      CLOUDY    67  64  92 S8        29.91R
ROCHELLE*      CLOUDY    69  65  86 S10       29.92R
$$

ILZ005-006-012>014-019>023-290400-
NORTHEAST ILLINOIS

CITY           SKY/WX    TMP DP  RH WIND       PRES   REMARKS
CHICAGO-OHARE  MOCLDY    75  61  61 W16G24    29.94R
CHICAGO-MIDWAY MOCLDY    79  63  57 S13       29.94R HX  80
AURORA         TSTM      67  63  87 SW13      29.97R FOG
LANSING*       PTCLDY    75  64  67 S14G22    29.95R
WAUKEGAN       CLOUDY    71  60  68 SW16G25   29.96R
DUPAGE AIRPORT CLOUDY    69  59  70 W18G28    29.96R
WHEELING       CLOUDY    73  58  59 W24G32    29.97R
NORTHERLY ISL    N/A     77  63  61 S13         N/A
NORTHERLY ISL    N/A     77  63  61 S13         N/A
$$

LMZ740>746-290400-
SOUTHERN LAKE MICHIGAN

STATION/POSITION SKY/WX   TEMP    WIND        PRES    VSBY  WAVE
                          AIR SEA DIR/SP/G                  HT/PER
                          (F)     (DEG/KT/KT) (MB)    (MI)  (FT/S)
SOUTHERN BUOY              59 50  150/ 14/ 16 1011.9          1/ 3
WILMETTE HARBOR            60 53  180/ 10/ 12   N/A           2/ 3
HARRISON CRIB              75     170/ 22/ 25   N/A
BURNHAM HARBOR             77     200/ 12/ 14   N/A
CALUMET HARBOR                                1012.3F
BURNS HARBOR               77     180/ 11/ 19 1013.9S
MICHIGAN CITY              78     140/  9/ 13   N/A
MICHIGAN CITY 6N           68 57  160/  6/ 10   N/A           1/ 3
ST. JOSEPH                 70 60  160/ 10/ 12   N/A           2/ 3
$$

ILZ025>027-034>036-040-047-049-050-058-095>099-290400-
WEST-CENTRAL ILLINOIS

CITY           SKY/WX    TMP DP  RH WIND       PRES   REMARKS
QUINCY         CLOUDY    72  60  66 W9        29.96R
MACOMB*        MOCLDY    71  63  75 SW7       29.95R
PITTSFIELD*    CLOUDY    70  68  93 S5        29.97R
$$

ILZ028>032-037-038-041>044-048-051>054-059>061-290400-
CENTRAL ILLINOIS

CITY           SKY/WX    TMP DP  RH WIND       PRES   REMARKS
BLOOMINGTON    CLOUDY    64  62  93 N7        30.00F FOG
DECATUR        CLOUDY    74  67  78 S10       29.97R
PEORIA         CLOUDY    67  62  84 SE7       29.95R
SPRINGFIELD    CLOUDY    76  67  73 S13       29.95R
TAYLORVILLE    NOT AVBL
$$

ILZ033-039-045-046-055>057-062-063-290400-
EAST-CENTRAL ILLINOIS

CITY           SKY/WX    TMP DP  RH WIND       PRES   REMARKS
CHAMPAIGN      CLOUDY    73  65  75 S13G25    29.99R
MATTOON        MOCLDY    74  65  73 S9        29.99R
$$

ILZ079-100>102-290400-
SOUTHWEST ILLINOIS

CITY           SKY/WX    TMP DP  RH WIND       PRES   REMARKS
ALTON          CLEAR     73  66  78 S18       29.99R
CAHOKIA*       PTCLDY    78  65  63 S12G30    29.98R HX  80
SPARTA*        CLOUDY    73  67  81 SW6       30.04R
$$

ILZ064>066-069>071-074>076-080>082-084>086-088>090-092>094-290400-
SOUTH-CENTRAL ILLINOIS

CITY           SKY/WX    TMP DP  RH WIND       PRES   REMARKS
CARBONDALE     PTCLDY    72  67  84 SW6       30.03R
MT. VERNON     CLOUDY    73  64  73 S6        30.04R
SALEM*         PTCLDY    75  67  77 S7        30.02R
$$

ILZ067-068-072-073-078-083-087-091-290400-
SOUTHEAST ILLINOIS

CITY           SKY/WX    TMP DP  RH WIND       PRES   REMARKS
LAWRENCEVILLE  PTCLDY    74  67  78 S8        30.03R
FLORA*         PTCLDY    73  69  86 S6        30.02R
HARRISBURG*    MOCLDY    72  69  89 CALM      30.03R
ROBINSON*      MOCLDY    70  66  88 S6        30.03S
$$

ABBREVIATIONS USED IN REMARKS
   TC - TEMPERATURE IN CELSIUS
  WCI - WIND CHILL INDEX
   HX - HEAT INDEX
  VSB - VISIBILITY
$$





USA.gov is the U.S. government's official web portal to all federal, state and local government web resources and services.